Back to catalog

STARLINK-30041

AliveCommunicationsVLEO
NORAD 57613·PAYLOAD·🇺🇸 United States

Launched Aug 11, 2023 from Cape Canaveral Space Force Station

Loading…

Next Passes (next 24 hours)

TLE

FreshSource: CelesTrak SupGP

Epoch: Sep 14, 2026, 22:00 UTC

1 57613C 23119M   26257.91715278 -.00005661  00000+0 -20510-3 0  2577
2 57613  43.0016  92.6936 0001553 265.1561 283.7268 15.27569859    17

Track STARLINK-30041 in real time with AllMySat

Download on the App Store